Terminal Aerodrome Forecast
Issued by NWS

Home | Current Version | Previous Version | Graphics & Text | Print | Product List | Glossary On
Versions: 1 2 3 4 5 6 7 8 9 10 11 12 13 14 15 16 17 18
326
FTUS43 KGRB 241605 AAA
TAFCWA
TAF AMD
KCWA 241605Z 2416/2512 04006KT 1 1/2SM -RA OVC004
     FM242000 05008G14KT 5SM -RA OVC008
     FM250200 05009KT 6SM -RA OVC012
     FM251000 06011G19KT P6SM OVC009=

USA.gov is the U.S. government's official web portal to all federal, state and local government web resources and services.